View from above orbital plane
|
View from above satellite
|
Ground track
|
The orbit data is extracted from the following two-line orbital elements,
1 22803U 93059B 21058.34353359 -.00000120 00000-0 -35811-4 0 9999
2 22803 70.9892 282.1054 0015484 133.3548 226.8868 14.16833796419409
Epoch (UTC): | 27 February 2021 08:14:41 |
Eccentricity: | 0.0015484 |
inclination: | 70.9892° |
perigee height: | 825 km |
apogee height: | 847 km |
right ascension of ascending node: | 282.1054° |
argument of perigee: | 133.3548° |
revolutions per day: | 14.16833796 |
mean anomaly at epoch: | 226.8868° |
orbit number at epoch: | 41940 |
The dashed part of the orbit path shows where the satellite is in the earth's shadow,
|
|